Charlottetown, Prince Edward Island

9:24 AM ADT on October 01, 2016 (GMT -0300)
Charlottetown

Weather History for CYYG - December, 2014

Change the Weather History Date:

Monday, December 22, 2014

  Actual Average Record
Temperature  
Mean Temperature 26 °F -  
Max Temperature 26 °F 30 °F 49 °F (2012)
Min Temperature 26 °F 18 °F 10 °F (1997)
Degree Days  
Heating Degree Days 39    
Moisture  
Dew Point 20 °F    
Average Humidity 74    
Maximum Humidity 80    
Minimum Humidity 62    
Precipitation  
Precipitation 0.00 in - - ()
Sea Level Pressure  
Sea Level Pressure 30.48 in    
Wind  
Wind Speed 2 mph ()    
Max Wind Speed 6 mph    
Max Gust Speed -    
Visibility 15.0 miles    
Events Snow    
Averages and records for this station are not official NWS values.
T = Trace of Precipitation, MM = Missing Value Source: Averaged Metar Reports

Daily Weather History Graph

Daily Weather History Graph

Search for Another Location

Airport or City:

Trip Planner

Search our weather history database for the weather conditions in past years. The results will help you decide how hot, cold, wet, or windy it might be!

Date:

Astronomy

Dec. 22, 2014 Rise Set
Actual Time 7:53 AM AST 4:29 PM AST
Civil Twilight 7:18 AM AST 5:04 PM AST
Nautical Twilight 6:39 AM AST 5:42 PM AST
Astronomical Twilight 6:03 AM AST 6:19 PM AST
Moon 7:57 AM AST (12/22) 5:37 PM AST (12/22)
Length of Visible Light 9h 46m
Length of Day
8h 36m
New Moon, 0% of the Moon is Illuminated
Dec 22
New Moon
Dec 28
First Quarter
Jan 5
Full
Jan 13
Last Quarter
Jan 20
New

Hourly Weather History & Observations

Time (AST) Temp. Windchill Dew Point Humidity Pressure Visibility Wind Dir Wind Speed Gust Speed Precip Events Conditions
12:00 AM 26.6 °F 22.6 °F 19.4 °F 74% 30.43 in 15.0 mi East 3.5 mph - N/A Snow Light Snow Showers
1:00 AM 26.6 °F - 19.4 °F 74% 30.43 in 15.0 mi Calm Calm - N/A Snow Light Snow Showers
2:00 AM 26 °F - 20 °F 68% 30.44 in 15 mi Calm Calm - - Snow Light Snow Showers
2:00 AM 26.6 °F - 19.4 °F 74% 30.44 in 15.0 mi Calm Calm - N/A Snow Light Snow Showers
3:00 AM 26.6 °F 22.6 °F 19.4 °F 74% 30.45 in 15.0 mi ENE 3.5 mph - N/A Snow Light Snow Showers
4:00 AM 26.6 °F - 19.4 °F 74% 30.46 in 15.0 mi Calm Calm - N/A   Overcast
5:00 AM 26.6 °F 22.6 °F 19.4 °F 74% 30.46 in 15.0 mi NE 3.5 mph - N/A   Overcast
6:00 AM 26.6 °F 22.6 °F 21.2 °F 80% 30.46 in 15.0 mi West 3.5 mph - N/A   Overcast
7:00 AM 26.6 °F - 19.4 °F 74% 30.46 in 15.0 mi SW 2.3 mph - N/A   Overcast
7:22 AM 26.6 °F - 19.4 °F 74% 30.46 in 15.0 mi Variable 2.3 mph - N/A Snow Light Freezing Drizzle
8:00 AM 26 °F - 20 °F 71% 30.48 in 15 mi SE 2.3 mph - - Snow Snow Grains
8:00 AM 26.6 °F - 21.2 °F 80% 30.47 in 15.0 mi Variable 2.3 mph - N/A Snow Light Snow Grains
9:00 AM 26.6 °F - 19.4 °F 74% 30.49 in 15.0 mi Variable 2.3 mph - N/A Snow Light Snow Grains
10:00 AM 26.6 °F 22.6 °F 19.4 °F 74% 30.51 in 15.0 mi South 3.5 mph - N/A Snow Light Snow Grains
11:00 AM 26.6 °F - 21.2 °F 80% 30.51 in 15.0 mi Variable 2.3 mph - N/A Snow Light Snow Grains
12:00 PM 26.6 °F - 21.2 °F 80% 30.50 in 15.0 mi Calm Calm - N/A Snow Light Snow Grains
1:00 PM 26.6 °F - 19.4 °F 74% 30.48 in 15.0 mi Calm Calm - N/A Snow Light Snow Grains
2:00 PM 27 °F - 19 °F 62% 30.48 in 15 mi West 5.8 mph - - Snow Snow Grains
2:00 PM 26.6 °F 21.2 °F 19.4 °F 74% 30.48 in 15.0 mi West 4.6 mph - N/A Snow Light Snow Grains
3:00 PM 26.6 °F - 19.4 °F 74% 30.48 in 15.0 mi Calm Calm - N/A Snow Light Snow Grains
4:00 PM 26.6 °F 20.0 °F 19.4 °F 74% 30.49 in 15.0 mi West 5.8 mph - N/A Snow Light Snow Grains
5:00 PM 26.6 °F - 19.4 °F 74% 30.49 in 15.0 mi Variable 2.3 mph - N/A Snow Light Snow Grains
6:00 PM 26.6 °F - 19.4 °F 74% 30.50 in 15.0 mi Variable 2.3 mph - N/A Snow Light Snow Grains
7:00 PM 26.6 °F - 19.4 °F 74% 30.51 in 15.0 mi Variable 2.3 mph - N/A Snow Light Snow Grains
8:00 PM 26 °F - 20 °F 68% 30.51 in 15 mi NW 2.3 mph - - Snow Snow Grains
8:00 PM 26.6 °F 22.6 °F 19.4 °F 74% 30.50 in 15.0 mi NNW 3.5 mph - N/A Snow Light Snow Grains
9:00 PM 26.6 °F - 19.4 °F 74% 30.51 in 15.0 mi Variable 2.3 mph - N/A Snow Light Snow Grains
10:00 PM 26.6 °F 21.2 °F 21.2 °F 80% 30.50 in 15.0 mi East 4.6 mph - N/A Snow Light Snow Grains
11:00 PM 26.6 °F 20.0 °F 21.2 °F 80% 30.50 in 15.0 mi NE 5.8 mph - N/A Snow Light Snow Grains